| time (UTC) | temp F | wind direction | speed MPH | gust MPH | rain 1hr in | rain 24hr in | rain mn in | humidity % | barometer mb |
| 20260507003558 | 70 | 255 | 6.0 | 12.0 | 0.00 | 0.00 | 0.00 | 62 | 1016.4 |
| 20260507003058 | 70 | 256 | 6.0 | 14.0 | 0.00 | 0.00 | 0.00 | 62 | 1016.5 |
| 20260507002558 | 71 | 248 | 3.0 | 14.0 | 0.00 | 0.00 | 0.00 | 61 | 1016.4 |
| 20260507002057 | 71 | 249 | 5.0 | 14.0 | 0.00 | 0.00 | 0.00 | 61 | 1016.3 |
| 20260507001605 | 70 | 252 | 7.0 | 14.0 | 0.00 | 0.00 | 0.00 | 61 | 1016.3 |
| 20260507001056 | 71 | 271 | 5.0 | 11.0 | 0.00 | 0.00 | 0.00 | 60 | 1016.3 |
| 20260507000557 | 71 | 228 | 6.0 | 14.0 | 0.00 | 0.00 | 0.00 | 61 | 1016.2 |
| 20260507000058 | 72 | 272 | 4.0 | 14.0 | 0.00 | 0.00 | 0.00 | 60 | 1016.2 |
| 20260506235558 | 72 | 269 | 5.0 | 12.0 | 0.00 | 0.00 | 0.00 | 59 | 1016.2 |
| 20260506235057 | 72 | 253 | 6.0 | 13.0 | 0.00 | 0.00 | 0.00 | 58 | 1016.2 |
| 20260506234627 | 72 | 285 | 6.0 | 13.0 | 0.00 | 0.00 | 0.00 | 59 | 1016.2 |
| 20260506234057 | 72 | 243 | 4.0 | 13.0 | 0.00 | 0.00 | 0.00 | 59 | 1016.1 |
| 20260506233558 | 72 | 257 | 8.0 | 12.0 | 0.00 | 0.00 | 0.00 | 58 | 1016.1 |
| 20260506233057 | 73 | 249 | 5.0 | 12.0 | 0.00 | 0.00 | 0.00 | 56 | 1016.2 |
| 20260506232559 | 72 | 265 | 5.0 | 14.0 | 0.00 | 0.00 | 0.00 | 57 | 1016.2 |
| 20260506232056 | 72 | 255 | 6.0 | 14.0 | 0.00 | 0.00 | 0.00 | 57 | 1016.2 |
| 20260506231558 | 72 | 255 | 6.0 | 12.0 | 0.00 | 0.00 | 0.00 | 57 | 1016.2 |
| 20260506231059 | 72 | 226 | 4.0 | 12.0 | 0.00 | 0.00 | 0.00 | 56 | 1016.2 |
| 20260506230602 | 72 | 278 | 5.0 | 13.0 | 0.00 | 0.00 | 0.00 | 56 | 1016.2 |
| 20260506230059 | 72 | 251 | 7.0 | 13.0 | 0.00 | 0.00 | 0.00 | 56 | 1016.2 |
| 20260506225602 | 72 | 246 | 3.0 | 12.0 | 0.00 | 0.00 | 0.00 | 56 | 1016.3 |
| 20260506225059 | 72 | 271 | 3.0 | 12.0 | 0.00 | 0.00 | 0.00 | 57 | 1016.3 |
| 20260506224600 | 72 | 254 | 3.0 | 12.0 | 0.00 | 0.00 | 0.00 | 56 | 1016.3 |
| 20260506224101 | 72 | 217 | 6.0 | 12.0 | 0.00 | 0.00 | 0.00 | 56 | 1016.4 |
| 20260506223600 | 72 | 253 | 4.0 | 12.0 | 0.00 | 0.00 | 0.00 | 56 | 1016.5 |
| 20260506223101 | 72 | 236 | 6.0 | 13.0 | 0.00 | 0.00 | 0.00 | 56 | 1016.6 |
| 20260506222635 | 72 | 226 | 4.0 | 14.0 | 0.00 | 0.00 | 0.00 | 56 | 1016.6 |
| 20260506222057 | 72 | 237 | 4.0 | 14.0 | 0.00 | 0.00 | 0.00 | 55 | 1016.6 |
| 20260506221558 | 72 | 248 | 3.0 | 11.0 | 0.00 | 0.00 | 0.00 | 55 | 1016.7 |
| 20260506221056 | 72 | 228 | 4.0 | 11.0 | 0.00 | 0.00 | 0.00 | 53 | 1016.8 |
| 20260506220556 | 72 | 265 | 5.0 | 14.0 | 0.00 | 0.00 | 0.00 | 55 | 1016.8 |
| 20260506220055 | 71 | 241 | 5.0 | 14.0 | 0.00 | 0.00 | 0.00 | 53 | 1017.0 |
| 20260506215557 | 72 | 259 | 7.0 | 14.0 | 0.00 | 0.00 | 0.00 | 53 | 1017.0 |
| 20260506215101 | 72 | 250 | 3.0 | 11.0 | 0.00 | 0.00 | 0.00 | 53 | 1017.0 |
| 20260506214557 | 71 | 259 | 3.0 | 11.0 | 0.00 | 0.00 | 0.00 | 54 | 1017.2 |
| 20260506214057 | 71 | 307 | 3.0 | 11.0 | 0.00 | 0.00 | 0.00 | 53 | 1017.4 |
| 20260506213557 | 71 | 153 | 4.0 | 11.0 | 0.00 | 0.00 | 0.00 | 53 | 1017.4 |
| 20260506213058 | 72 | 155 | 2.0 | 11.0 | 0.00 | 0.00 | 0.00 | 53 | 1017.4 |
| 20260506212557 | 72 | 259 | 2.0 | 12.0 | 0.00 | 0.00 | 0.00 | 53 | 1017.5 |
| 20260506212059 | 71 | 281 | 3.0 | 12.0 | 0.00 | 0.00 | 0.00 | 53 | 1017.5 |
| 20260506211559 | 71 | 214 | 3.0 | 9.0 | 0.00 | 0.00 | 0.00 | 54 | 1017.6 |
| 20260506211057 | 71 | 257 | 3.0 | 9.0 | 0.00 | 0.00 | 0.00 | 54 | 1017.6 |
| 20260506210559 | 70 | 169 | 3.0 | 11.0 | 0.00 | 0.00 | 0.00 | 54 | 1017.7 |
| 20260506210057 | 71 | 62 | 2.0 | 11.0 | 0.00 | 0.00 | 0.00 | 54 | 1017.7 |
| 20260506205559 | 71 | 137 | 3.0 | 9.0 | 0.00 | 0.00 | 0.00 | 54 | 1017.8 |
| 20260506205056 | 71 | 188 | 1.0 | 10.0 | 0.00 | 0.00 | 0.00 | 55 | 1017.8 |
| 20260506204602 | 70 | 233 | 2.0 | 10.0 | 0.00 | 0.00 | 0.00 | 56 | 1017.9 |
| 20260506204056 | 69 | 278 | 4.0 | 10.0 | 0.00 | 0.00 | 0.00 | 57 | 1017.9 |
| 20260506203556 | 69 | 272 | 1.0 | 10.0 | 0.00 | 0.00 | 0.00 | 58 | 1018.0 |
| 20260506203058 | 69 | 276 | 4.0 | 10.0 | 0.00 | 0.00 | 0.00 | 57 | 1018.1 |
| 20260506202600 | 70 | 257 | 3.0 | 10.0 | 0.00 | 0.00 | 0.00 | 56 | 1018.1 |
| 20260506202059 | 69 | 231 | 1.0 | 10.0 | 0.00 | 0.00 | 0.00 | 57 | 1018.1 |
| 20260506201558 | 69 | 237 | 2.0 | 9.0 | 0.00 | 0.00 | 0.00 | 57 | 1018.1 |
| 20260506201057 | 68 | 127 | 4.0 | 9.0 | 0.00 | 0.00 | 0.00 | 59 | 1018.1 |
| 20260506200601 | 69 | 249 | 2.0 | 9.0 | 0.00 | 0.00 | 0.00 | 57 | 1018.2 |
| 20260506200112 | 69 | 202 | 2.0 | 8.0 | 0.00 | 0.00 | 0.00 | 57 | 1018.2 |
| 20260506195600 | 69 | 150 | 3.0 | 6.0 | 0.00 | 0.00 | 0.00 | 58 | 1018.2 |
| 20260506195057 | 69 | 0 | 2.0 | 7.0 | 0.00 | 0.00 | 0.00 | 56 | 1018.3 |
| 20260506194619 | 68 | 182 | 3.0 | 9.0 | 0.00 | 0.00 | 0.00 | 60 | 1018.3 |
| 20260506194056 | 68 | 261 | 4.0 | 9.0 | 0.00 | 0.00 | 0.00 | 58 | 1018.3 |
| 20260506193600 | 69 | 255 | 0.0 | 8.0 | 0.00 | 0.00 | 0.00 | 57 | 1018.4 |
| 20260506193058 | 67 | 193 | 4.0 | 8.0 | 0.00 | 0.00 | 0.00 | 57 | 1018.5 |
| 20260506192557 | 68 | 179 | 1.0 | 6.0 | 0.00 | 0.00 | 0.00 | 57 | 1018.6 |
| 20260506192057 | 67 | 0 | 2.0 | 6.0 | 0.00 | 0.00 | 0.00 | 57 | 1018.6 |
| 20260506191556 | 67 | 212 | 2.0 | 7.0 | 0.00 | 0.00 | 0.00 | 59 | 1018.7 |
| 20260506191057 | 67 | 152 | 1.0 | 7.0 | 0.00 | 0.00 | 0.00 | 58 | 1018.8 |
| 20260506190559 | 67 | 267 | 3.0 | 7.0 | 0.00 | 0.00 | 0.00 | 59 | 1018.9 |
| 20260506190100 | 67 | 123 | 2.0 | 6.0 | 0.00 | 0.00 | 0.00 | 59 | 1018.9 |
| 20260506185557 | 67 | 107 | 1.0 | 5.0 | 0.00 | 0.00 | 0.00 | 57 | 1019.0 |
| 20260506185100 | 67 | 323 | 0.0 | 5.0 | 0.00 | 0.00 | 0.00 | 58 | 1019.0 |
| 20260506184610 | 66 | 288 | 2.0 | 5.0 | 0.00 | 0.00 | 0.00 | 59 | 1019.1 |
| 20260506184057 | 65 | 161 | 1.0 | 7.0 | 0.00 | 0.00 | 0.00 | 60 | 1019.0 |
| 20260506183601 | 65 | 100 | 3.0 | 7.0 | 0.00 | 0.00 | 0.00 | 59 | 1019.2 |
| 20260506183105 | 66 | 241 | 1.0 | 4.0 | 0.00 | 0.00 | 0.00 | 60 | 1019.1 |
| 20260506182556 | 65 | 0 | 1.0 | 5.0 | 0.00 | 0.00 | 0.00 | 60 | 1019.2 |
| 20260506182056 | 65 | 251 | 0.0 | 8.0 | 0.00 | 0.00 | 0.00 | 61 | 1019.3 |
| 20260506181600 | 64 | 132 | 2.0 | 8.0 | 0.00 | 0.00 | 0.00 | 61 | 1019.2 |
| 20260506181100 | 64 | 182 | 1.0 | 8.0 | 0.00 | 0.00 | 0.00 | 62 | 1019.2 |
| 20260506180557 | 64 | 274 | 2.0 | 6.0 | 0.00 | 0.00 | 0.00 | 62 | 1019.2 |
| 20260506180057 | 64 | 91 | 1.0 | 4.0 | 0.00 | 0.00 | 0.00 | 63 | 1019.3 |
| 20260506175556 | 63 | 249 | 0.0 | 4.0 | 0.00 | 0.00 | 0.00 | 64 | 1019.3 |
| 20260506175056 | 62 | 0 | 1.0 | 5.0 | 0.00 | 0.00 | 0.00 | 64 | 1019.3 |
| 20260506174602 | 62 | 116 | 2.0 | 5.0 | 0.00 | 0.00 | 0.00 | 64 | 1019.2 |
| 20260506174058 | 62 | 166 | 2.0 | 5.0 | 0.00 | 0.00 | 0.00 | 65 | 1019.2 |
| 20260506173558 | 62 | 124 | 0.0 | 4.0 | 0.00 | 0.00 | 0.00 | 65 | 1019.3 |
| 20260506173112 | 62 | 120 | 0.0 | 4.0 | 0.00 | 0.00 | 0.00 | 65 | 1019.3 |
| 20260506172600 | 61 | 44 | 2.0 | 6.0 | 0.00 | 0.00 | 0.00 | 66 | 1019.2 |
| 20260506172056 | 62 | 76 | 1.0 | 6.0 | 0.00 | 0.00 | 0.00 | 66 | 1019.3 |
| 20260506171600 | 62 | 117 | 0.0 | 3.0 | 0.00 | 0.00 | 0.00 | 67 | 1019.3 |
| 20260506171057 | 61 | 201 | 1.0 | 4.0 | 0.00 | 0.00 | 0.00 | 67 | 1019.2 |
| 20260506170600 | 61 | 0 | 1.0 | 4.0 | 0.00 | 0.00 | 0.00 | 68 | 1019.2 |
| 20260506170057 | 61 | 190 | 1.0 | 4.0 | 0.00 | 0.00 | 0.00 | 68 | 1019.2 |
| 20260506165557 | 61 | 0 | 1.0 | 4.0 | 0.00 | 0.00 | 0.00 | 68 | 1019.2 |
| 20260506165057 | 61 | 270 | 1.0 | 4.0 | 0.00 | 0.00 | 0.00 | 68 | 1019.2 |
| 20260506164558 | 60 | 237 | 0.0 | 6.0 | 0.00 | 0.00 | 0.00 | 69 | 1019.2 |
| 20260506164056 | 59 | 182 | 1.0 | 6.0 | 0.00 | 0.00 | 0.00 | 70 | 1019.2 |
| 20260506163556 | 59 | 213 | 1.0 | 4.0 | 0.00 | 0.00 | 0.00 | 70 | 1019.2 |
| 20260506163055 | 59 | 202 | 1.0 | 4.0 | 0.00 | 0.00 | 0.00 | 72 | 1019.2 |
| 20260506162559 | 59 | 203 | 1.0 | 5.0 | 0.00 | 0.00 | 0.00 | 71 | 1019.2 |
| 20260506162101 | 58 | 0 | 1.0 | 5.0 | 0.00 | 0.00 | 0.00 | 73 | 1019.2 |
| 20260506161605 | 59 | 250 | 0.0 | 4.0 | 0.00 | 0.00 | 0.00 | 71 | 1019.2 |
| 20260506161057 | 59 | 181 | 1.0 | 4.0 | 0.00 | 0.00 | 0.00 | 71 | 1019.1 |
| 20260506160557 | 58 | 106 | 1.0 | 4.0 | 0.00 | 0.00 | 0.00 | 72 | 1019.2 |
| 20260506160058 | 58 | 207 | 1.0 | 4.0 | 0.00 | 0.00 | 0.00 | 73 | 1019.2 |
| 20260506155558 | 58 | 64 | 1.0 | 3.0 | 0.00 | 0.00 | 0.00 | 73 | 1019.1 |
| 20260506155058 | 58 | 115 | 0.0 | 2.0 | 0.00 | 0.00 | 0.00 | 72 | 1019.1 |
| 20260506154557 | 58 | 0 | 0.0 | 2.0 | 0.00 | 0.00 | 0.00 | 72 | 1019.0 |
| 20260506154057 | 58 | 180 | 0.0 | 1.0 | 0.00 | 0.00 | 0.00 | 74 | 1019.0 |
| 20260506153556 | 57 | 0 | 0.0 | 2.0 | 0.00 | 0.00 | 0.00 | 74 | 1019.1 |
| 20260506153058 | 57 | 143 | 0.0 | 2.0 | 0.00 | 0.00 | 0.00 | 73 | 1019.1 |
| 20260506152557 | 57 | 61 | 0.0 | 2.0 | 0.00 | 0.00 | 0.00 | 74 | 1019.2 |
| 20260506152101 | 57 | 0 | 0.0 | 2.0 | 0.00 | 0.00 | 0.00 | 75 | 1019.2 |
| 20260506151608 | 57 | 195 | 0.0 | 2.0 | 0.00 | 0.00 | 0.00 | 76 | 1019.2 |
| 20260506151057 | 57 | 261 | 0.0 | 1.0 | 0.00 | 0.00 | 0.00 | 76 | 1019.3 |
| 20260506150557 | 56 | 0 | 0.0 | 2.0 | 0.00 | 0.00 | 0.00 | 75 | 1019.3 |
| 20260506150106 | 56 | 0 | 0.0 | 2.0 | 0.00 | 0.00 | 0.00 | 76 | 1019.2 |
| 20260506145558 | 56 | 143 | 0.0 | 2.0 | 0.00 | 0.00 | 0.00 | 75 | 1019.2 |
| 20260506145058 | 57 | 0 | 0.0 | 2.0 | 0.00 | 0.00 | 0.00 | 75 | 1019.2 |
| 20260506144613 | 58 | 69 | 0.0 | 2.0 | 0.00 | 0.00 | 0.00 | 75 | 1019.2 |
| 20260506144056 | 57 | 0 | 0.0 | 0.0 | 0.00 | 0.00 | 0.00 | 78 | 1019.2 |
| 20260506143557 | 56 | 0 | 0.0 | 1.0 | 0.00 | 0.00 | 0.00 | 79 | 1019.1 |
| 20260506143103 | 56 | 0 | 0.0 | 1.0 | 0.00 | 0.00 | 0.00 | 82 | 1019.0 |
| 20260506142558 | 55 | 0 | 0.0 | 1.0 | 0.00 | 0.00 | 0.00 | 83 | 1018.9 |
| 20260506142056 | 54 | 0 | 0.0 | 1.0 | 0.00 | 0.00 | 0.00 | 85 | 1018.8 |
| 20260506141559 | 54 | 0 | 0.0 | 0.0 | 0.00 | 0.00 | 0.00 | 87 | 1018.9 |
| 20260506141057 | 53 | 0 | 0.0 | 0.0 | 0.00 | 0.00 | 0.00 | 90 | 1018.9 |
| 20260506140558 | 52 | 0 | 0.0 | 0.0 | 0.00 | 0.00 | 0.00 | 91 | 1018.9 |
| 20260506140111 | 51 | 0 | 0.0 | 0.0 | 0.00 | 0.00 | 0.00 | 91 | 1018.9 |
| 20260506135557 | 50 | 0 | 0.0 | 0.0 | 0.00 | 0.00 | 0.00 | 93 | 1018.8 |
| 20260506135056 | 49 | 0 | 0.0 | 0.0 | 0.00 | 0.00 | 0.00 | 92 | 1018.8 |
| 20260506134559 | 49 | 0 | 0.0 | 0.0 | 0.00 | 0.00 | 0.00 | 94 | 1018.7 |
| 20260506134056 | 48 | 0 | 0.0 | 0.0 | 0.00 | 0.00 | 0.00 | 93 | 1018.7 |
| 20260506133557 | 47 | 0 | 0.0 | 0.0 | 0.00 | 0.00 | 0.00 | 93 | 1018.6 |
| 20260506133059 | 47 | 0 | 0.0 | 1.0 | 0.00 | 0.00 | 0.00 | 94 | 1018.5 |
| 20260506132557 | 46 | 0 | 0.0 | 1.0 | 0.00 | 0.00 | 0.00 | 94 | 1018.5 |
| 20260506132056 | 46 | 0 | 0.0 | 0.0 | 0.00 | 0.00 | 0.00 | 94 | 1018.4 |
| 20260506131601 | 46 | 0 | 0.0 | 0.0 | 0.00 | 0.00 | 0.00 | 94 | 1018.3 |
| 20260506131056 | 46 | 0 | 0.0 | 0.0 | 0.00 | 0.00 | 0.00 | 94 | 1018.3 |
| 20260506130557 | 46 | 0 | 0.0 | 0.0 | 0.00 | 0.00 | 0.00 | 94 | 1018.3 |
| 20260506130126 | 46 | 0 | 0.0 | 0.0 | 0.00 | 0.00 | 0.00 | 94 | 1018.2 |
| 20260506125602 | 46 | 0 | 0.0 | 0.0 | 0.00 | 0.00 | 0.00 | 94 | 1018.2 |
| 20260506125057 | 46 | 0 | 0.0 | 0.0 | 0.00 | 0.00 | 0.00 | 94 | 1018.2 |
| 20260506124556 | 46 | 0 | 0.0 | 0.0 | 0.00 | 0.00 | 0.00 | 94 | 1018.2 |
| 20260506124058 | 46 | 0 | 0.0 | 0.0 | 0.00 | 0.00 | 0.00 | 94 | 1018.2 |
| 20260506123559 | 46 | 0 | 0.0 | 0.0 | 0.00 | 0.00 | 0.00 | 94 | 1018.1 |
| 20260506123055 | 46 | 0 | 0.0 | 0.0 | 0.00 | 0.00 | 0.00 | 93 | 1018.1 |
| 20260506122558 | 46 | 0 | 0.0 | 0.0 | 0.00 | 0.00 | 0.00 | 93 | 1018.0 |
| 20260506122056 | 46 | 0 | 0.0 | 0.0 | 0.00 | 0.00 | 0.00 | 93 | 1018.0 |
| 20260506121555 | 46 | 0 | 0.0 | 0.0 | 0.00 | 0.00 | 0.00 | 93 | 1018.1 |
| 20260506121056 | 46 | 0 | 0.0 | 0.0 | 0.00 | 0.00 | 0.00 | 93 | 1018.0 |
| 20260506120556 | 46 | 0 | 0.0 | 0.0 | 0.00 | 0.00 | 0.00 | 93 | 1017.9 |
| 20260506120100 | 46 | 0 | 0.0 | 0.0 | 0.00 | 0.00 | 0.00 | 93 | 1017.9 |
| 20260506115557 | 46 | 0 | 0.0 | 0.0 | 0.00 | 0.00 | 0.00 | 93 | 1017.9 |
| 20260506115055 | 46 | 0 | 0.0 | 0.0 | 0.00 | 0.00 | 0.00 | 92 | 1017.9 |
| 20260506114557 | 46 | 0 | 0.0 | 0.0 | 0.00 | 0.00 | 0.00 | 93 | 1017.9 |
| 20260506114057 | 46 | 0 | 0.0 | 0.0 | 0.00 | 0.00 | 0.00 | 92 | 1017.9 |
| 20260506113558 | 46 | 0 | 0.0 | 0.0 | 0.00 | 0.00 | 0.00 | 92 | 1017.9 |
| 20260506113105 | 46 | 0 | 0.0 | 0.0 | 0.00 | 0.00 | 0.00 | 92 | 1017.9 |
| 20260506112555 | 46 | 0 | 0.0 | 0.0 | 0.00 | 0.00 | 0.00 | 92 | 1017.8 |
| 20260506112056 | 46 | 0 | 0.0 | 0.0 | 0.00 | 0.00 | 0.00 | 92 | 1017.8 |
| 20260506111600 | 46 | 0 | 0.0 | 0.0 | 0.00 | 0.00 | 0.00 | 92 | 1017.8 |
| 20260506111056 | 46 | 0 | 0.0 | 0.0 | 0.00 | 0.00 | 0.00 | 92 | 1017.8 |
| 20260506110557 | 46 | 0 | 0.0 | 0.0 | 0.00 | 0.00 | 0.00 | 92 | 1017.9 |
| 20260506110105 | 46 | 0 | 0.0 | 0.0 | 0.00 | 0.00 | 0.00 | 91 | 1017.8 |
| 20260506105558 | 46 | 0 | 0.0 | 0.0 | 0.00 | 0.03 | 0.00 | 90 | 1017.8 |
| 20260506105056 | 46 | 0 | 0.0 | 0.0 | 0.00 | 0.03 | 0.00 | 91 | 1017.7 |
| 20260506104617 | 46 | 0 | 0.0 | 0.0 | 0.00 | 0.03 | 0.00 | 91 | 1017.8 |
| 20260506104058 | 46 | 0 | 0.0 | 0.0 | 0.00 | 0.03 | 0.00 | 91 | 1017.8 |
| 20260506103557 | 46 | 0 | 0.0 | 0.0 | 0.00 | 0.03 | 0.00 | 91 | 1017.8 |
| 20260506103055 | 45 | 0 | 0.0 | 0.0 | 0.00 | 0.03 | 0.00 | 90 | 1017.8 |
| 20260506102558 | 45 | 0 | 0.0 | 0.0 | 0.00 | 0.03 | 0.00 | 90 | 1017.9 |
| 20260506102057 | 45 | 0 | 0.0 | 0.0 | 0.00 | 0.03 | 0.00 | 90 | 1017.9 |
| 20260506101606 | 46 | 0 | 0.0 | 0.0 | 0.00 | 0.03 | 0.00 | 90 | 1017.8 |
| 20260506101057 | 46 | 0 | 0.0 | 0.0 | 0.00 | 0.03 | 0.00 | 90 | 1017.8 |
| 20260506100559 | 46 | 0 | 0.0 | 0.0 | 0.00 | 0.03 | 0.00 | 89 | 1017.8 |
| 20260506100104 | 46 | 0 | 0.0 | 0.0 | 0.00 | 0.03 | 0.00 | 90 | 1017.9 |
| 20260506095559 | 46 | 0 | 0.0 | 0.0 | 0.00 | 0.11 | 0.00 | 89 | 1017.9 |
| 20260506095058 | 46 | 0 | 0.0 | 0.0 | 0.00 | 0.11 | 0.00 | 88 | 1017.9 |
| 20260506094600 | 46 | 0 | 0.0 | 0.0 | 0.00 | 0.11 | 0.00 | 88 | 1017.9 |
| 20260506094057 | 46 | 0 | 0.0 | 0.0 | 0.00 | 0.11 | 0.00 | 88 | 1017.9 |
| 20260506093557 | 47 | 0 | 0.0 | 0.0 | 0.00 | 0.11 | 0.00 | 88 | 1017.9 |
| 20260506093104 | 47 | 0 | 0.0 | 0.0 | 0.00 | 0.11 | 0.00 | 88 | 1017.9 |
| 20260506092558 | 47 | 0 | 0.0 | 0.0 | 0.00 | 0.11 | 0.00 | 88 | 1017.9 |
| 20260506092058 | 47 | 0 | 0.0 | 0.0 | 0.00 | 0.11 | 0.00 | 88 | 1017.9 |
| 20260506091559 | 47 | 0 | 0.0 | 0.0 | 0.00 | 0.11 | 0.00 | 88 | 1018.1 |
| 20260506091101 | 47 | 0 | 0.0 | 0.0 | 0.00 | 0.11 | 0.00 | 88 | 1018.1 |
| 20260506090604 | 47 | 0 | 0.0 | 1.0 | 0.00 | 0.11 | 0.00 | 87 | 1018.2 |
| 20260506085557 | 48 | 234 | 0.0 | 1.0 | 0.00 | 0.15 | 0.00 | 87 | 1018.3 |
| 20260506085059 | 48 | 0 | 0.0 | 1.0 | 0.00 | 0.15 | 0.00 | 86 | 1018.3 |
| 20260506084559 | 48 | 0 | 0.0 | 1.0 | 0.00 | 0.15 | 0.00 | 86 | 1018.3 |
| 20260506084058 | 49 | 0 | 0.0 | 1.0 | 0.00 | 0.15 | 0.00 | 85 | 1018.3 |
| 20260506083558 | 49 | 250 | 0.0 | 1.0 | 0.00 | 0.15 | 0.00 | 86 | 1018.3 |
| 20260506083100 | 49 | 0 | 0.0 | 0.0 | 0.00 | 0.15 | 0.00 | 86 | 1018.3 |
| 20260506082558 | 49 | 0 | 0.0 | 0.0 | 0.00 | 0.15 | 0.00 | 86 | 1018.4 |
| 20260506082100 | 49 | 0 | 0.0 | 0.0 | 0.00 | 0.15 | 0.00 | 86 | 1018.4 |
| 20260506081605 | 49 | 0 | 0.0 | 2.0 | 0.00 | 0.15 | 0.00 | 85 | 1018.5 |
| 20260506081058 | 49 | 0 | 0.0 | 2.0 | 0.00 | 0.15 | 0.00 | 85 | 1018.5 |
| 20260506080558 | 49 | 255 | 0.0 | 0.0 | 0.00 | 0.15 | 0.00 | 86 | 1018.5 |
| 20260506080107 | 49 | 0 | 0.0 | 0.0 | 0.00 | 0.15 | 0.00 | 86 | 1018.5 |
| 20260506073106 | 49 | 0 | 0.0 | 0.0 | 0.00 | 0.16 | 0.00 | 86 | 1018.3 |
| 20260506072556 | 49 | 0 | 0.0 | 0.0 | 0.00 | 0.16 | 0.00 | 86 | 1018.3 |
| 20260506072059 | 49 | 0 | 0.0 | 0.0 | 0.00 | 0.16 | 0.00 | 85 | 1018.3 |
| 20260506071614 | 50 | 0 | 0.0 | 0.0 | 0.00 | 0.16 | 0.00 | 85 | 1018.3 |
| 20260506071101 | 50 | 0 | 0.0 | 0.0 | 0.00 | 0.16 | 0.00 | 84 | 1018.3 |
| 20260506070558 | 50 | 0 | 0.0 | 0.0 | 0.00 | 0.16 | 0.00 | 83 | 1018.3 |
| 20260506070104 | 51 | 0 | 0.0 | 0.0 | 0.00 | 0.16 | 0.00 | 83 | 1018.2 |
| 20260506062057 | 52 | 0 | 0.0 | 1.0 | 0.00 | 0.19 | 0.16 | 80 | 1017.9 |
| 20260506061558 | 52 | 0 | 0.0 | 1.0 | 0.00 | 0.19 | 0.16 | 80 | 1017.9 |
| 20260506061055 | 53 | 0 | 0.0 | 2.0 | 0.00 | 0.19 | 0.16 | 79 | 1017.8 |
| 20260506060601 | 53 | 0 | 0.0 | 4.0 | 0.00 | 0.19 | 0.16 | 79 | 1017.9 |
| 20260506051101 | 54 | 265 | 0.0 | 2.0 | 0.00 | 0.19 | 0.16 | 76 | 1017.5 |
| 20260506050557 | 54 | 237 | 1.0 | 2.0 | 0.00 | 0.19 | 0.16 | 76 | 1017.5 |
| 20260506045057 | 54 | 0 | 0.0 | 1.0 | 0.00 | 0.19 | 0.16 | 77 | 1017.3 |
| 20260506044601 | 54 | 0 | 0.0 | 1.0 | 0.00 | 0.19 | 0.16 | 77 | 1017.3 |
| 20260506044057 | 54 | 245 | 0.0 | 1.0 | 0.00 | 0.19 | 0.16 | 76 | 1017.3 |
| 20260506043557 | 54 | 0 | 0.0 | 1.0 | 0.00 | 0.19 | 0.16 | 76 | 1017.1 |
| 20260506043057 | 54 | 0 | 0.0 | 1.0 | 0.00 | 0.19 | 0.16 | 75 | 1017.2 |
| 20260506042555 | 54 | 0 | 0.0 | 1.0 | 0.00 | 0.19 | 0.16 | 75 | 1017.1 |
| 20260506042058 | 54 | 263 | 0.0 | 1.0 | 0.00 | 0.19 | 0.16 | 75 | 1017.0 |
| 20260506041605 | 54 | 0 | 0.0 | 1.0 | 0.00 | 0.19 | 0.16 | 75 | 1016.8 |
| 20260506041054 | 54 | 229 | 0.0 | 1.0 | 0.00 | 0.19 | 0.16 | 75 | 1016.8 |
| 20260506040559 | 54 | 0 | 0.0 | 1.0 | 0.00 | 0.19 | 0.16 | 75 | 1016.7 |
| 20260506040057 | 54 | 0 | 0.0 | 1.0 | 0.00 | 0.19 | 0.16 | 75 | 1016.6 |
| 20260506035601 | 53 | 0 | 0.0 | 2.0 | 0.00 | 0.19 | 0.16 | 75 | 1016.5 |
| 20260506035058 | 54 | 0 | 0.0 | 2.0 | 0.00 | 0.19 | 0.16 | 76 | 1016.5 |
| 20260506034600 | 54 | 0 | 0.0 | 2.0 | 0.00 | 0.19 | 0.16 | 75 | 1016.4 |
| 20260506034057 | 54 | 0 | 0.0 | 0.0 | 0.00 | 0.19 | 0.16 | 76 | 1016.5 |
| 20260506033559 | 54 | 0 | 0.0 | 0.0 | 0.00 | 0.19 | 0.16 | 76 | 1016.3 |
| 20260506033113 | 54 | 0 | 0.0 | 0.0 | 0.00 | 0.19 | 0.16 | 76 | 1016.2 |
| 20260506032557 | 54 | 0 | 0.0 | 0.0 | 0.00 | 0.19 | 0.16 | 75 | 1016.2 |
| 20260506032057 | 54 | 0 | 0.0 | 0.0 | 0.00 | 0.19 | 0.16 | 75 | 1016.1 |
| 20260506031606 | 54 | 0 | 0.0 | 0.0 | 0.00 | 0.19 | 0.16 | 74 | 1015.9 |
| 20260506031101 | 55 | 0 | 0.0 | 1.0 | 0.00 | 0.19 | 0.16 | 73 | 1015.9 |
| 20260506030600 | 55 | 0 | 0.0 | 2.0 | 0.00 | 0.19 | 0.16 | 72 | 1015.7 |
| 20260506030100 | 55 | 0 | 0.0 | 2.0 | 0.00 | 0.19 | 0.16 | 71 | 1015.7 |
| 20260506025558 | 56 | 0 | 0.0 | 2.0 | 0.00 | 0.19 | 0.16 | 71 | 1015.7 |
| 20260506025057 | 56 | 0 | 1.0 | 5.0 | 0.00 | 0.19 | 0.16 | 70 | 1015.5 |
| 20260506024600 | 56 | 0 | 0.0 | 5.0 | 0.00 | 0.19 | 0.16 | 69 | 1015.5 |
| 20260506024059 | 56 | 0 | 1.0 | 5.0 | 0.00 | 0.19 | 0.16 | 69 | 1015.4 |
| 20260506023556 | 57 | 259 | 1.0 | 4.0 | 0.00 | 0.19 | 0.16 | 68 | 1015.3 |
| 20260506023101 | 57 | 0 | 1.0 | 8.0 | 0.00 | 0.19 | 0.16 | 68 | 1015.2 |
| 20260506022559 | 57 | 242 | 1.0 | 8.0 | 0.00 | 0.19 | 0.16 | 67 | 1015.2 |
| 20260506022059 | 57 | 231 | 3.0 | 8.0 | 0.00 | 0.19 | 0.16 | 66 | 1015.2 |
| 20260506021600 | 58 | 264 | 4.0 | 8.0 | 0.00 | 0.19 | 0.16 | 65 | 1015.1 |
| 20260506021101 | 58 | 238 | 2.0 | 11.0 | 0.00 | 0.19 | 0.16 | 65 | 1015.0 |
| 20260506020559 | 58 | 245 | 3.0 | 11.0 | 0.00 | 0.19 | 0.16 | 64 | 1015.1 |
| 20260506020101 | 58 | 231 | 2.0 | 10.0 | 0.00 | 0.19 | 0.16 | 65 | 1015.0 |
| 20260506015559 | 58 | 243 | 4.0 | 10.0 | 0.00 | 0.19 | 0.16 | 64 | 1015.0 |
| 20260506015056 | 59 | 247 | 3.0 | 7.0 | 0.00 | 0.19 | 0.16 | 64 | 1015.0 |
| 20260506014604 | 59 | 270 | 4.0 | 7.0 | 0.00 | 0.19 | 0.16 | 63 | 1015.0 |
| 20260506014100 | 59 | 293 | 3.0 | 7.0 | 0.00 | 0.19 | 0.16 | 63 | 1014.9 |
| 20260506013559 | 59 | 231 | 4.0 | 9.0 | 0.00 | 0.19 | 0.16 | 63 | 1014.9 |
| 20260506013059 | 59 | 229 | 4.0 | 9.0 | 0.00 | 0.19 | 0.16 | 63 | 1014.8 |
| 20260506012557 | 59 | 238 | 4.0 | 9.0 | 0.00 | 0.19 | 0.16 | 63 | 1014.8 |
| 20260506012100 | 59 | 223 | 3.0 | 10.0 | 0.00 | 0.19 | 0.16 | 63 | 1014.8 |
| 20260506011558 | 59 | 245 | 4.0 | 12.0 | 0.00 | 0.19 | 0.16 | 63 | 1014.7 |
| 20260506011100 | 59 | 227 | 4.0 | 12.0 | 0.00 | 0.19 | 0.16 | 63 | 1014.7 |
| 20260506010600 | 59 | 214 | 3.0 | 8.0 | 0.00 | 0.19 | 0.16 | 63 | 1014.7 |
| 20260506010106 | 59 | 262 | 3.0 | 7.0 | 0.00 | 0.19 | 0.16 | 63 | 1014.8 |
| 20260506005602 | 59 | 233 | 3.0 | 8.0 | 0.00 | 0.19 | 0.16 | 63 | 1014.8 |
| 20260506005056 | 59 | 261 | 3.0 | 8.0 | 0.00 | 0.19 | 0.16 | 61 | 1014.8 |
| 20260506004600 | 60 | 224 | 2.0 | 12.0 | 0.00 | 0.19 | 0.16 | 62 | 1014.8 |
| 20260506004059 | 60 | 255 | 3.0 | 12.0 | 0.00 | 0.19 | 0.16 | 62 | 1014.7 |